Weather History for Salt Lake City, UT

Change the Weather History Date:

Sunday, July 13, 2014

  Actual Average Record
Temperature  
Mean Temperature 84 °F 79 °F  
Max Temperature 98 °F 93 °F 107 °F (2002)
Min Temperature 69 °F 65 °F 47 °F (1943)
Degree Days  
Heating Degree Days 0 0  
Month to date heating degree days 0 0  
Since 1 June heating degree days 39 46  
Since 1 July heating degree days 0 0  
Cooling Degree Days 19 14  
Month to date cooling degree days 226 160  
Year to date cooling degree days 468 397  
Since 1 June cooling degree days 406 347  
Growing Degree Days 34 (Base 50)    
Moisture  
Dew Point 48 °F    
Average Humidity 33    
Maximum Humidity 50    
Minimum Humidity 15    
Precipitation  
Precipitation 0.00 in 0.02 in 2.28 in (1962)
Month to date precipitation 0.09 0.21  
Year to date precipitation 7.76 9.42  
Snow  
Snow 0.00 in 0.00 in - ()
Month to date snowfall 0.0 0.0  
Since 1 July snowfall 0.0 0.0  
Snow Depth 0.00 in    
Sea Level Pressure  
Sea Level Pressure 29.98 in    
Wind  
Wind Speed 6 mph (NW)    
Max Wind Speed 12 mph    
Max Gust Speed -    
Visibility 10 miles    
Events      
T = Trace of Precipitation, MM = Missing Value Source: NWS Daily Summary

Daily Weather History Graph

Daily Weather History Graph

Search for Another Location

Airport:

Trip Planner

Search our weather history database for the weather conditions in past years. The results will help you decide how hot, cold, wet, or windy it might be!

Date:

Astronomy

Jul. 13, 2014 Rise Set
Actual Time 6:07 AM MDT 8:59 PM MDT
Civil Twilight 5:35 AM MDT 9:31 PM MDT
Nautical Twilight 4:54 AM MDT 10:12 PM MDT
Astronomical Twilight 4:06 AM MDT 10:59 PM MDT
Moon 9:48 PM MDT (7/13) 7:43 AM MDT (7/13)
Length of Visible Light 15h 56m
Length of Day
14h 51m
Full, 98% of the Moon is Illuminated
Jul 13
Full
Jul 18
Last Quarter
Jul 26
New
Aug 3
First Quarter
Aug 10
Full

Hourly Weather History & Observations

Time (MDT) Temp. Heat Index Dew Point Humidity Pressure Visibility Wind Dir Wind Speed Gust Speed Precip Events Conditions
2:53 AM 75.2 °F - 50.0 °F 41% 30.14 in 10.0 mi NW 3.5 mph - N/A   Clear
3:53 AM 75.2 °F - 50.0 °F 41% 30.14 in 10.0 mi ESE 5.8 mph - N/A   Clear
4:53 AM 71.6 °F - 51.8 °F 50% 30.15 in 10.0 mi NW 3.5 mph - N/A   Clear
5:53 AM 71.6 °F - 51.8 °F 50% 30.16 in 10.0 mi Calm Calm - N/A   Clear
6:53 AM 73.4 °F - 53.6 °F 50% 30.18 in 10.0 mi Calm Calm - N/A   Clear
7:53 AM 75.9 °F - 55.0 °F 48% 30.01 in 10.0 mi North 5.8 mph - N/A   Partly Cloudy
8:53 AM 81.0 °F 80.4 °F 53.1 °F 38% 30.01 in 10.0 mi Calm Calm - N/A   Partly Cloudy
9:53 AM 84.9 °F - 52.0 °F 32% 30.01 in 10.0 mi NNW 8.1 mph - N/A   Partly Cloudy
10:53 AM 87.1 °F - 52.0 °F 30% 30.01 in 10.0 mi NW 5.8 mph - N/A   Partly Cloudy
11:53 AM 89.1 °F - 52.0 °F 28% 30.00 in 10.0 mi Variable 4.6 mph - N/A   Partly Cloudy
12:53 PM 91.9 °F - 50.0 °F 24% 29.98 in 10.0 mi NW 8.1 mph - N/A   Partly Cloudy
1:53 PM 93.9 °F - 46.0 °F 19% 29.96 in 10.0 mi North 10.4 mph - N/A   Partly Cloudy
2:53 PM 97.0 °F - 41.0 °F 14% 29.94 in 10.0 mi NNW 10.4 mph - N/A   Partly Cloudy
3:53 PM 96.1 °F - 45.0 °F 17% 29.92 in 10.0 mi Variable 4.6 mph - N/A   Scattered Clouds
5:53 PM 97.0 °F - 44.1 °F 16% 29.90 in 10.0 mi NW 11.5 mph - N/A   Partly Cloudy
6:53 PM 96.1 °F - 43.0 °F 16% 29.88 in 10.0 mi NW 10.4 mph - N/A   Scattered Clouds
7:53 PM 93.9 °F - 39.0 °F 15% 29.87 in 10.0 mi NW 9.2 mph - N/A   Scattered Clouds
8:53 PM 89.1 °F - 46.0 °F 22% 29.87 in 10.0 mi West 8.1 mph - N/A   Mostly Cloudy
9:53 PM 86.0 °F - 50.0 °F 29% 29.88 in 10.0 mi WNW 5.8 mph - N/A   Scattered Clouds
10:53 PM 84.0 °F - 44.1 °F 25% 29.89 in 10.0 mi SE 5.8 mph - N/A   Mostly Cloudy
11:53 PM 80.1 °F - 46.9 °F 31% 29.90 in 10.0 mi South 4.6 mph - N/A   Scattered Clouds